Location: Unspecified
(0.0000°N, 0.0000°E)
Time: 00:45:24
(UTC+00:00)

ISS - Pass Details

Date: 18 November 2017
Orbit: 402 x 407 km, 51.6° (Epoch: 19 November)

Event Time Altitude Azimuth Distance (km) Brightness Sun altitude
Rises 19:19:03 0° 219° (SW) 2,322 1.0 -22.0°
Reaches altitude 10° 19:21:08 10° 221° (SW) 1,459 -0.2 -22.5°
Enters shadow 19:23:36 46° 239° (WSW) 548 -2.8 -23.1°
